Location: Dampvalley
(47.9094°N, 6.1967°E)
Time: 16:01:00
(UTC+00:00)

USA 238 DEB - Pass Details

Date: 05 March 2021
Orbit: 995 x 1217 km, 63.4° (Epoch: 11 April)

Event Time Altitude Azimuth Distance (km) Brightness Sun altitude
Exits shadow 04:12:14 - 318° (NW) 3,909 6.4 -20.2°
Reaches altitude 10° 04:14:46 10° 319° (NW) 3,010 5.8 -19.7°
Maximum altitude 04:22:01 87° 230° (SW) 1,175 3.8 -18.5°
Drops below altitude 10° 04:29:35 10° 143° (SE) 3,132 6.5 -17.3°
Sets 04:32:21 0° 144° (SE) 4,108 7.1 -16.8°
